| time (UTC) | temp F | wind direction | speed MPH | gust MPH | rain 1hr in | rain 24hr in | rain mn in | humidity % | barometer mb |
| 20260905050657 | 66 | 39 | 0.0 | 1.0 | 0.00 | 0.00 | 0.00 | 99 | 1008.1 |
| 20260905050154 | 0 | 0.0 | 0.0 | 0.00 | 0.00 | 0.00 | 1008.1 | ||
| 20260905045653 | 66 | 72 | 0.0 | 0.0 | 0.00 | 0.00 | 0.00 | 99 | 1008.0 |
| 20260905045148 | 66 | 72 | 0.0 | 0.0 | 0.00 | 0.00 | 0.00 | 99 | 1008.2 |
| 20260905044643 | 66 | 72 | 0.0 | 0.0 | 0.00 | 0.00 | 0.00 | 99 | 1008.3 |
| 20260905044138 | 66 | 69 | 0.0 | 0.0 | 0.00 | 0.00 | 0.00 | 99 | 1008.2 |
| 20260905043636 | 66 | 72 | 0.0 | 0.0 | 0.00 | 0.00 | 0.00 | 99 | 1008.1 |
| 20260905043132 | 66 | 71 | 0.0 | 0.0 | 0.00 | 0.00 | 0.00 | 99 | 1008.2 |
| 20260905042631 | 66 | 71 | 0.0 | 0.0 | 0.00 | 0.00 | 0.00 | 99 | 1008.2 |
| 20260905042126 | 66 | 72 | 0.0 | 0.0 | 0.00 | 0.00 | 0.00 | 99 | 1008.2 |
| 20260905041621 | 66 | 72 | 0.0 | 0.0 | 0.00 | 0.00 | 0.00 | 99 | 1008.3 |
| 20260905041116 | 66 | 72 | 0.0 | 0.0 | 0.00 | 0.00 | 0.00 | 98 | 1008.4 |
| 20260905040611 | 0 | 0.0 | 0.0 | 0.00 | 0.00 | 0.00 | 1008.3 | ||
| 20260905040110 | 0 | 0.0 | 0.0 | 0.00 | 0.00 | 0.00 | 1008.4 | ||
| 20260905035605 | 66 | 69 | 0.0 | 0.0 | 0.00 | 0.50 | 0.50 | 99 | 1008.3 |
| 20260905035101 | 66 | 69 | 0.0 | 0.0 | 0.00 | 0.50 | 0.50 | 99 | 1008.5 |
| 20260905034557 | 66 | 69 | 0.0 | 0.0 | 0.00 | 0.50 | 0.50 | 99 | 1008.4 |
| 20260905034050 | 66 | 81 | 0.0 | 0.0 | 0.00 | 0.50 | 0.50 | 98 | 1008.5 |
| 20260905033544 | 66 | 72 | 0.0 | 0.0 | 0.00 | 0.50 | 0.50 | 98 | 1008.3 |
| 20260905033041 | 0 | 0.0 | 0.0 | 0.00 | 0.00 | 0.00 | 1008.4 | ||
| 20260905032535 | 0 | 0.0 | 0.0 | 0.00 | 0.00 | 0.00 | 1008.3 | ||
| 20260905032030 | 0 | 0.0 | 0.0 | 0.00 | 0.00 | 0.00 | 1008.3 | ||
| 20260905031526 | 0 | 0.0 | 0.0 | 0.00 | 0.00 | 0.00 | 1008.2 | ||
| 20260905031025 | 66 | 72 | 0.0 | 0.0 | 0.00 | 0.50 | 0.50 | 99 | 1008.1 |
| 20260905030520 | 66 | 72 | 0.0 | 0.0 | 0.00 | 0.50 | 0.50 | 99 | 1008.4 |
| 20260905030015 | 66 | 71 | 0.0 | 0.0 | 0.00 | 0.50 | 0.50 | 99 | 1008.5 |
| 20260905025510 | 66 | 64 | 0.0 | 0.0 | 0.00 | 0.50 | 0.50 | 99 | 1008.3 |
| 20260905025006 | 66 | 55 | 0.0 | 0.0 | 0.00 | 0.50 | 0.50 | 98 | 1008.2 |
| 20260905024501 | 66 | 48 | 0.0 | 0.0 | 0.00 | 0.50 | 0.50 | 98 | 1008.0 |
| 20260905023957 | 66 | 296 | 0.0 | 0.0 | 0.00 | 0.50 | 0.50 | 98 | 1008.1 |
| 20260905023451 | 67 | 72 | 0.0 | 0.0 | 0.00 | 0.50 | 0.50 | 97 | 1007.9 |
| 20260905022950 | 67 | 72 | 0.0 | 0.0 | 0.00 | 0.50 | 0.50 | 97 | 1008.0 |
| 20260905022445 | 67 | 72 | 0.0 | 0.0 | 0.00 | 0.50 | 0.50 | 97 | 1008.0 |
| 20260905021941 | 67 | 74 | 0.0 | 0.0 | 0.00 | 0.50 | 0.50 | 96 | 1008.0 |
| 20260905021440 | 67 | 74 | 0.0 | 0.0 | 0.00 | 0.50 | 0.50 | 96 | 1007.9 |
| 20260905020936 | 68 | 71 | 0.0 | 0.0 | 0.00 | 0.50 | 0.50 | 95 | 1008.1 |
| 20260905020435 | 68 | 71 | 0.0 | 0.0 | 0.00 | 0.50 | 0.50 | 95 | 1008.2 |
| 20260905015930 | 68 | 72 | 0.0 | 0.0 | 0.00 | 0.50 | 0.50 | 94 | 1008.0 |
| 20260905015428 | 69 | 72 | 0.0 | 0.0 | 0.00 | 0.50 | 0.50 | 94 | 1008.0 |
| 20260905014927 | 69 | 65 | 0.0 | 0.0 | 0.00 | 0.50 | 0.50 | 94 | 1007.8 |
| 20260905014423 | 69 | 65 | 0.0 | 0.0 | 0.00 | 0.50 | 0.50 | 93 | 1007.9 |
| 20260905013918 | 69 | 53 | 0.0 | 0.0 | 0.00 | 0.50 | 0.50 | 91 | 1007.8 |
| 20260905013415 | 69 | 43 | 0.0 | 1.0 | 0.00 | 0.50 | 0.50 | 91 | 1007.6 |
| 20260905012910 | 69 | 30 | 0.0 | 1.0 | 0.00 | 0.50 | 0.50 | 91 | 1007.8 |
| 20260905012405 | 69 | 15 | 1.0 | 1.0 | 0.00 | 0.50 | 0.50 | 91 | 1007.8 |
| 20260905011902 | 69 | 19 | 1.0 | 1.0 | 0.00 | 0.50 | 0.50 | 93 | 1007.8 |
| 20260905011357 | 69 | 47 | 0.0 | 0.0 | 0.00 | 0.50 | 0.50 | 94 | 1007.9 |
| 20260905010853 | 69 | 83 | 0.0 | 0.0 | 0.00 | 0.50 | 0.50 | 92 | 1008.0 |
| 20260905010347 | 69 | 73 | 0.0 | 0.0 | 0.00 | 0.50 | 0.50 | 91 | 1007.9 |
| 20260905005843 | 69 | 68 | 0.0 | 0.0 | 0.00 | 0.50 | 0.50 | 90 | 1008.0 |
| 20260905005339 | 69 | 72 | 0.0 | 0.0 | 0.00 | 0.50 | 0.50 | 90 | 1008.1 |
| 20260905004834 | 70 | 72 | 0.0 | 0.0 | 0.00 | 0.50 | 0.50 | 91 | 1008.0 |
| 20260905004328 | 70 | 72 | 0.0 | 0.0 | 0.00 | 0.50 | 0.50 | 88 | 1008.1 |
| 20260905003824 | 70 | 72 | 0.0 | 0.0 | 0.00 | 0.50 | 0.50 | 87 | 1007.8 |
| 20260905003320 | 70 | 91 | 0.0 | 0.0 | 0.00 | 0.50 | 0.50 | 87 | 1008.0 |
| 20260905002815 | 70 | 91 | 0.0 | 0.0 | 0.00 | 0.50 | 0.50 | 87 | 1007.9 |
| 20260905002315 | 71 | 91 | 0.0 | 0.0 | 0.00 | 0.50 | 0.50 | 87 | 1007.6 |
| 20260905001810 | 71 | 91 | 0.0 | 0.0 | 0.00 | 0.50 | 0.50 | 87 | 1007.7 |
| 20260905001309 | 71 | 90 | 0.0 | 0.0 | 0.00 | 0.50 | 0.50 | 87 | 1007.6 |
| 20260905000805 | 71 | 76 | 0.0 | 0.0 | 0.00 | 0.50 | 0.50 | 86 | 1007.8 |
| 20260905000303 | 71 | 65 | 0.0 | 0.0 | 0.00 | 0.50 | 0.50 | 85 | 1007.9 |
| 20260904235756 | 71 | 72 | 0.0 | 0.0 | 0.00 | 0.50 | 0.50 | 85 | 1007.6 |
| 20260904235250 | 71 | 116 | 0.0 | 0.0 | 0.00 | 0.50 | 0.50 | 85 | 1007.7 |
| 20260904234745 | 72 | 73 | 0.0 | 0.0 | 0.00 | 0.50 | 0.50 | 84 | 1007.6 |
| 20260904234240 | 72 | 71 | 0.0 | 0.0 | 0.00 | 0.50 | 0.50 | 83 | 1007.5 |
| 20260904233736 | 72 | 49 | 0.0 | 0.0 | 0.00 | 0.50 | 0.50 | 82 | 1007.5 |
| 20260904233232 | 72 | 72 | 0.0 | 0.0 | 0.00 | 0.50 | 0.50 | 82 | 1007.5 |
| 20260904232728 | 73 | 73 | 0.0 | 0.0 | 0.00 | 0.50 | 0.50 | 82 | 1007.5 |
| 20260904232224 | 73 | 73 | 0.0 | 0.0 | 0.00 | 0.50 | 0.50 | 83 | 1007.5 |
| 20260904231720 | 74 | 50 | 0.0 | 0.0 | 0.00 | 0.50 | 0.50 | 84 | 1007.3 |
| 20260904231215 | 74 | 0 | 0.0 | 0.0 | 0.00 | 0.50 | 0.50 | 83 | 1007.4 |
| 20260904230715 | 75 | 64 | 0.0 | 0.0 | 0.00 | 0.50 | 0.50 | 82 | 1007.5 |
| 20260904230209 | 75 | 57 | 0.0 | 0.0 | 0.00 | 0.50 | 0.50 | 81 | 1007.4 |
| 20260904225708 | 76 | 64 | 0.0 | 0.0 | 0.00 | 0.50 | 0.50 | 80 | 1007.5 |
| 20260904225202 | 75 | 38 | 0.0 | 0.0 | 0.00 | 0.50 | 0.50 | 76 | 1007.4 |
| 20260904224656 | 76 | 38 | 0.0 | 0.0 | 0.00 | 0.50 | 0.50 | 76 | 1007.5 |
| 20260904224151 | 76 | 30 | 0.0 | 0.0 | 0.00 | 0.50 | 0.50 | 80 | 1007.4 |
| 20260904223651 | 76 | 3 | 0.0 | 0.0 | 0.00 | 0.50 | 0.50 | 79 | 1007.5 |
| 20260904223146 | 76 | 8 | 0.0 | 0.0 | 0.00 | 0.50 | 0.50 | 77 | 1007.6 |
| 20260904222642 | 77 | 53 | 0.0 | 0.0 | 0.00 | 0.50 | 0.50 | 76 | 1007.4 |
| 20260904222137 | 77 | 31 | 0.0 | 0.0 | 0.00 | 0.50 | 0.50 | 75 | 1007.4 |
| 20260904221636 | 77 | 15 | 0.0 | 0.0 | 0.00 | 0.50 | 0.50 | 76 | 1007.3 |
| 20260904221131 | 77 | 16 | 1.0 | 1.0 | 0.00 | 0.50 | 0.50 | 76 | 1007.3 |
| 20260904220626 | 77 | 60 | 0.0 | 0.0 | 0.00 | 0.50 | 0.50 | 75 | 1007.2 |
| 20260904220121 | 78 | 66 | 0.0 | 0.0 | 0.00 | 0.50 | 0.50 | 76 | 1007.3 |
| 20260904215616 | 78 | 10 | 0.0 | 0.0 | 0.00 | 0.50 | 0.50 | 76 | 1007.3 |
| 20260904215112 | 78 | 98 | 0.0 | 1.0 | 0.00 | 0.50 | 0.50 | 72 | 1007.2 |
| 20260904214607 | 77 | 40 | 0.0 | 0.0 | 0.00 | 0.50 | 0.50 | 76 | 1007.3 |
| 20260904214103 | 76 | 40 | 0.0 | 0.0 | 0.00 | 0.50 | 0.50 | 76 | 1007.3 |
| 20260904213600 | 76 | 40 | 0.0 | 0.0 | 0.00 | 0.50 | 0.50 | 77 | 1007.3 |
| 20260904213057 | 76 | 40 | 0.0 | 0.0 | 0.00 | 0.50 | 0.50 | 76 | 1007.2 |
| 20260904212556 | 76 | 40 | 0.0 | 0.0 | 0.00 | 0.50 | 0.50 | 75 | 1007.2 |
| 20260904212052 | 76 | 40 | 0.0 | 0.0 | 0.00 | 0.50 | 0.50 | 77 | 1007.1 |
| 20260904211551 | 76 | 40 | 0.0 | 0.0 | 0.00 | 0.50 | 0.50 | 75 | 1007.4 |
| 20260904211047 | 76 | 20 | 0.0 | 0.0 | 0.00 | 0.50 | 0.50 | 75 | 1007.2 |
| 20260904210546 | 77 | 62 | 0.0 | 0.0 | 0.00 | 0.50 | 0.50 | 74 | 1007.5 |
| 20260904210042 | 77 | 41 | 0.0 | 0.0 | 0.00 | 0.50 | 0.50 | 74 | 1007.2 |
| 20260904205537 | 78 | 65 | 0.0 | 0.0 | 0.00 | 0.50 | 0.50 | 72 | 1007.6 |
| 20260904205034 | 78 | 41 | 0.0 | 0.0 | 0.00 | 0.50 | 0.50 | 74 | 1007.6 |
| 20260904204530 | 78 | 120 | 0.0 | 1.0 | 0.00 | 0.50 | 0.50 | 69 | 1007.6 |
| 20260904204025 | 79 | 33 | 0.0 | 1.0 | 0.00 | 0.50 | 0.50 | 66 | 1007.4 |
| 20260904203521 | 78 | 33 | 1.0 | 1.0 | 0.00 | 0.50 | 0.50 | 69 | 1007.7 |
| 20260904203017 | 78 | 41 | 0.0 | 0.0 | 0.00 | 0.50 | 0.50 | 72 | 1007.6 |
| 20260904202513 | 78 | 346 | 1.0 | 1.0 | 0.00 | 0.50 | 0.50 | 73 | 1007.7 |
| 20260904202009 | 77 | 24 | 1.0 | 1.0 | 0.00 | 0.50 | 0.50 | 74 | 1007.7 |
| 20260904201504 | 78 | 338 | 0.0 | 1.0 | 0.00 | 0.50 | 0.50 | 74 | 1007.6 |
| 20260904200959 | 77 | 22 | 1.0 | 1.0 | 0.00 | 0.50 | 0.50 | 73 | 1007.8 |
| 20260904200457 | 77 | 33 | 0.0 | 0.0 | 0.00 | 0.50 | 0.50 | 72 | 1007.5 |
| 20260904195952 | 78 | 19 | 0.0 | 1.0 | 0.00 | 0.50 | 0.50 | 71 | 1007.8 |
| 20260904195451 | 78 | 36 | 1.0 | 1.0 | 0.00 | 0.50 | 0.50 | 69 | 1007.8 |
| 20260904194950 | 79 | 36 | 1.0 | 1.0 | 0.00 | 0.50 | 0.50 | 70 | 1007.5 |
| 20260904194445 | 79 | 43 | 1.0 | 1.0 | 0.00 | 0.50 | 0.50 | 68 | 1007.8 |
| 20260904193940 | 78 | 66 | 0.0 | 0.0 | 0.00 | 0.50 | 0.50 | 71 | 1007.7 |
| 20260904193435 | 79 | 72 | 0.0 | 0.0 | 0.00 | 0.50 | 0.50 | 68 | 1007.8 |
| 20260904192931 | 78 | 54 | 0.0 | 0.0 | 0.00 | 0.50 | 0.50 | 71 | 1008.0 |
| 20260904192426 | 79 | 28 | 1.0 | 1.0 | 0.00 | 0.50 | 0.50 | 66 | 1008.0 |
| 20260904191922 | 79 | 18 | 1.0 | 1.0 | 0.00 | 0.50 | 0.50 | 67 | 1007.8 |
| 20260904191419 | 81 | 18 | 2.0 | 2.0 | 0.00 | 0.50 | 0.50 | 66 | 1008.1 |
| 20260904190915 | 80 | 22 | 0.0 | 1.0 | 0.00 | 0.50 | 0.50 | 67 | 1007.9 |
| 20260904190410 | 80 | 266 | 1.0 | 1.0 | 0.00 | 0.50 | 0.50 | 66 | 1008.1 |
| 20260904185906 | 80 | 38 | 0.0 | 0.0 | 0.00 | 0.50 | 0.50 | 70 | 1008.1 |
| 20260904185402 | 81 | 307 | 1.0 | 2.0 | 0.00 | 0.50 | 0.50 | 62 | 1008.1 |
| 20260904184902 | 80 | 12 | 0.0 | 0.0 | 0.00 | 0.50 | 0.50 | 65 | 1008.2 |
| 20260904184356 | 80 | 290 | 1.0 | 2.0 | 0.00 | 0.50 | 0.50 | 64 | 1008.1 |
| 20260904183852 | 80 | 1 | 2.0 | 3.0 | 0.00 | 0.50 | 0.50 | 63 | 1008.2 |
| 20260904183346 | 80 | 7 | 2.0 | 3.0 | 0.00 | 0.50 | 0.50 | 64 | 1008.3 |
| 20260904182842 | 81 | 31 | 0.0 | 1.0 | 0.00 | 0.50 | 0.50 | 65 | 1008.2 |
| 20260904182337 | 80 | 15 | 3.0 | 3.0 | 0.00 | 0.50 | 0.50 | 62 | 1008.3 |
| 20260904181833 | 80 | 4 | 1.0 | 2.0 | 0.00 | 0.50 | 0.50 | 67 | 1008.3 |
| 20260904181332 | 80 | 348 | 1.0 | 1.0 | 0.00 | 0.50 | 0.50 | 65 | 1008.3 |
| 20260904180828 | 79 | 24 | 1.0 | 2.0 | 0.00 | 0.50 | 0.50 | 68 | 1008.2 |
| 20260904180323 | 80 | 15 | 3.0 | 5.0 | 0.00 | 0.50 | 0.50 | 64 | 1008.3 |
| 20260904175822 | 80 | 4 | 3.0 | 3.0 | 0.00 | 0.50 | 0.50 | 63 | 1008.1 |
| 20260904175321 | 81 | 33 | 4.0 | 5.0 | 0.00 | 0.50 | 0.50 | 64 | 1008.3 |
| 20260904174821 | 82 | 357 | 1.0 | 1.0 | 0.00 | 0.50 | 0.50 | 68 | 1008.1 |
| 20260904174317 | 82 | 346 | 0.0 | 1.0 | 0.00 | 0.50 | 0.50 | 66 | 1008.2 |
| 20260904173813 | 81 | 9 | 0.0 | 0.0 | 0.00 | 0.50 | 0.50 | 66 | 1008.2 |
| 20260904173308 | 81 | 331 | 1.0 | 2.0 | 0.00 | 0.50 | 0.50 | 68 | 1008.3 |
| 20260904172804 | 81 | 309 | 2.0 | 2.0 | 0.00 | 0.50 | 0.50 | 71 | 1008.4 |
| 20260904172305 | 81 | 3 | 3.0 | 5.0 | 0.00 | 0.50 | 0.50 | 68 | 1008.2 |
| 20260904171758 | 81 | 26 | 2.0 | 2.0 | 0.00 | 0.50 | 0.50 | 72 | 1008.3 |
| 20260904171253 | 81 | 13 | 3.0 | 3.0 | 0.00 | 0.50 | 0.50 | 69 | 1008.1 |
| 20260904170750 | 80 | 10 | 1.0 | 2.0 | 0.00 | 0.50 | 0.50 | 71 | 1008.2 |
| 20260904170246 | 80 | 358 | 3.0 | 3.0 | 0.00 | 0.50 | 0.50 | 70 | 1008.2 |
| 20260904165744 | 80 | 358 | 2.0 | 2.0 | 0.00 | 0.50 | 0.50 | 67 | 1008.2 |
| 20260904165238 | 80 | 15 | 1.0 | 1.0 | 0.00 | 0.50 | 0.50 | 72 | 1008.1 |
| 20260904164733 | 80 | 32 | 2.0 | 3.0 | 0.00 | 0.50 | 0.50 | 71 | 1008.1 |
| 20260904164228 | 79 | 344 | 1.0 | 2.0 | 0.00 | 0.50 | 0.50 | 74 | 1008.4 |
| 20260904163724 | 78 | 20 | 1.0 | 2.0 | 0.00 | 0.50 | 0.50 | 72 | 1008.3 |
| 20260904163219 | 78 | 17 | 2.0 | 2.0 | 0.00 | 0.50 | 0.50 | 74 | 1008.4 |
| 20260904162718 | 79 | 98 | 1.0 | 1.0 | 0.00 | 0.50 | 0.50 | 74 | 1008.3 |
| 20260904162213 | 78 | 49 | 3.0 | 5.0 | 0.00 | 0.50 | 0.50 | 71 | 1008.1 |
| 20260904161709 | 78 | 50 | 3.0 | 3.0 | 0.00 | 0.50 | 0.50 | 73 | 1008.1 |
| 20260904161204 | 79 | 343 | 4.0 | 6.0 | 0.00 | 0.50 | 0.50 | 72 | 1008.3 |
| 20260904160700 | 79 | 25 | 4.0 | 6.0 | 0.00 | 0.50 | 0.50 | 73 | 1008.3 |
| 20260904160155 | 79 | 1 | 1.0 | 2.0 | 0.00 | 0.50 | 0.50 | 78 | 1008.6 |
| 20260904155650 | 79 | 39 | 2.0 | 2.0 | 0.00 | 0.50 | 0.50 | 79 | 1008.5 |
| 20260904155149 | 79 | 29 | 1.0 | 2.0 | 0.00 | 0.50 | 0.50 | 76 | 1008.6 |
| 20260904154648 | 78 | 41 | 1.0 | 1.0 | 0.00 | 0.50 | 0.50 | 80 | 1008.5 |
| 20260904154148 | 77 | 10 | 2.0 | 2.0 | 0.00 | 0.50 | 0.50 | 80 | 1008.4 |
| 20260904153643 | 78 | 7 | 4.0 | 5.0 | 0.00 | 0.50 | 0.50 | 80 | 1008.7 |
| 20260904153138 | 77 | 29 | 2.0 | 2.0 | 0.00 | 0.50 | 0.50 | 82 | 1008.6 |
| 20260904152635 | 76 | 34 | 2.0 | 3.0 | 0.00 | 0.50 | 0.50 | 85 | 1008.7 |
| 20260904152130 | 74 | 351 | 3.0 | 3.0 | 0.00 | 0.50 | 0.50 | 87 | 1008.9 |
| 20260904151625 | 74 | 24 | 3.0 | 3.0 | 0.00 | 0.50 | 0.50 | 88 | 1008.8 |
| 20260904151124 | 75 | 13 | 1.0 | 2.0 | 0.00 | 0.50 | 0.50 | 89 | 1008.7 |
| 20260904150619 | 75 | 40 | 0.0 | 1.0 | 0.00 | 0.50 | 0.50 | 89 | 1008.7 |
| 20260904150115 | 74 | 47 | 1.0 | 1.0 | 0.00 | 0.50 | 0.50 | 92 | 1008.7 |
| 20260904145613 | 73 | 50 | 1.0 | 1.0 | 0.00 | 0.50 | 0.50 | 96 | 1008.4 |
| 20260904145108 | 71 | 32 | 1.0 | 1.0 | 0.00 | 0.50 | 0.50 | 99 | 1008.6 |
| 20260904144604 | 71 | 57 | 1.0 | 1.0 | 0.00 | 0.50 | 0.50 | 99 | 1008.7 |
| 20260904144100 | 71 | 43 | 0.0 | 1.0 | 0.00 | 0.50 | 0.50 | 99 | 1008.7 |
| 20260904143555 | 71 | 51 | 0.0 | 0.0 | 0.00 | 0.50 | 0.50 | 99 | 1008.5 |
| 20260904143052 | 71 | 23 | 0.0 | 0.0 | 0.00 | 0.50 | 0.50 | 99 | 1008.7 |
| 20260904142548 | 71 | 30 | 0.0 | 0.0 | 0.00 | 0.50 | 0.50 | 99 | 1008.5 |
| 20260904142043 | 71 | 43 | 0.0 | 0.0 | 0.00 | 0.50 | 0.50 | 99 | 1008.8 |
| 20260904141538 | 71 | 39 | 0.0 | 1.0 | 0.00 | 0.50 | 0.50 | 99 | 1008.7 |
| 20260904141034 | 71 | 53 | 0.0 | 0.0 | 0.00 | 0.50 | 0.50 | 99 | 1008.7 |
| 20260904140533 | 71 | 22 | 0.0 | 0.0 | 0.00 | 0.50 | 0.50 | 99 | 1008.4 |
| 20260904140028 | 71 | 40 | 0.0 | 0.0 | 0.00 | 0.50 | 0.50 | 99 | 1008.6 |
| 20260904135527 | 71 | 49 | 0.0 | 0.0 | 0.00 | 0.50 | 0.50 | 99 | 1008.5 |
| 20260904135024 | 71 | 57 | 0.0 | 0.0 | 0.00 | 0.50 | 0.50 | 99 | 1008.4 |
| 20260904134519 | 71 | 66 | 0.0 | 0.0 | 0.00 | 0.50 | 0.50 | 99 | 1008.6 |
| 20260904134013 | 71 | 39 | 0.0 | 1.0 | 0.00 | 0.50 | 0.50 | 99 | 1008.7 |
| 20260904133508 | 71 | 32 | 0.0 | 0.0 | 0.00 | 0.50 | 0.50 | 99 | 1008.7 |
| 20260904133004 | 71 | 50 | 0.0 | 0.0 | 0.00 | 0.50 | 0.50 | 99 | 1008.8 |
| 20260904132504 | 71 | 38 | 0.0 | 0.0 | 0.00 | 0.50 | 0.50 | 99 | 1008.5 |
| 20260904131958 | 71 | 29 | 0.0 | 0.0 | 0.00 | 0.50 | 0.50 | 99 | 1008.5 |
| 20260904131453 | 71 | 48 | 0.0 | 1.0 | 0.00 | 0.50 | 0.50 | 99 | 1008.6 |
| 20260904130949 | 71 | 40 | 0.0 | 0.0 | 0.00 | 0.50 | 0.50 | 99 | 1008.7 |
| 20260904130448 | 71 | 55 | 0.0 | 0.0 | 0.00 | 0.50 | 0.50 | 99 | 1008.7 |
| 20260904125943 | 71 | 55 | 0.0 | 0.0 | 0.00 | 0.50 | 0.50 | 99 | 1008.5 |
| 20260904125439 | 71 | 68 | 0.0 | 0.0 | 0.00 | 0.50 | 0.50 | 99 | 1008.7 |
| 20260904124938 | 70 | 86 | 0.0 | 0.0 | 0.00 | 0.50 | 0.50 | 99 | 1008.9 |
| 20260904124435 | 70 | 64 | 0.0 | 0.0 | 0.00 | 0.50 | 0.50 | 99 | 1008.7 |
| 20260904123930 | 70 | 51 | 0.0 | 0.0 | 0.00 | 0.50 | 0.50 | 99 | 1008.6 |
| 20260904123425 | 70 | 59 | 0.0 | 0.0 | 0.00 | 0.50 | 0.50 | 99 | 1008.8 |
| 20260904122920 | 70 | 57 | 0.0 | 0.0 | 0.00 | 0.50 | 0.50 | 99 | 1008.6 |
| 20260904122420 | 70 | 51 | 0.0 | 0.0 | 0.00 | 0.50 | 0.50 | 99 | 1008.6 |
| 20260904121914 | 69 | 132 | 0.0 | 1.0 | 0.00 | 0.50 | 0.50 | 99 | 1008.7 |
| 20260904121411 | 69 | 47 | 0.0 | 0.0 | 0.00 | 0.50 | 0.50 | 99 | 1008.8 |
| 20260904120907 | 69 | 67 | 0.0 | 0.0 | 0.00 | 0.50 | 0.50 | 99 | 1008.7 |
| 20260904120403 | 69 | 57 | 0.0 | 0.0 | 0.00 | 0.50 | 0.50 | 99 | 1008.7 |
| 20260904115858 | 69 | 14 | 0.0 | 0.0 | 0.00 | 0.50 | 0.50 | 99 | 1008.6 |
| 20260904115352 | 69 | 12 | 0.0 | 0.0 | 0.00 | 0.50 | 0.50 | 99 | 1008.6 |
| 20260904114847 | 69 | 50 | 0.0 | 0.0 | 0.00 | 0.50 | 0.50 | 99 | 1008.7 |
| 20260904114342 | 69 | 33 | 0.0 | 0.0 | 0.00 | 0.50 | 0.50 | 99 | 1008.7 |
| 20260904113837 | 68 | 24 | 0.0 | 0.0 | 0.00 | 0.50 | 0.50 | 99 | 1008.5 |
| 20260904113337 | 68 | 53 | 0.0 | 0.0 | 0.00 | 0.50 | 0.50 | 99 | 1008.5 |
| 20260904112832 | 68 | 38 | 0.0 | 0.0 | 0.00 | 0.50 | 0.50 | 99 | 1008.5 |
| 20260904112327 | 68 | 64 | 0.0 | 0.0 | 0.00 | 0.50 | 0.50 | 99 | 1008.2 |
| 20260904111823 | 68 | 44 | 0.0 | 0.0 | 0.00 | 0.50 | 0.50 | 99 | 1008.3 |
| 20260904111319 | 68 | 53 | 0.0 | 0.0 | 0.00 | 0.50 | 0.50 | 99 | 1008.0 |
| 20260904110814 | 68 | 59 | 0.0 | 0.0 | 0.00 | 0.50 | 0.50 | 99 | 1008.3 |
| 20260904110313 | 68 | 48 | 0.0 | 0.0 | 0.00 | 0.50 | 0.50 | 99 | 1008.4 |
| 20260904105807 | 68 | 19 | 0.0 | 0.0 | 0.00 | 0.50 | 0.50 | 99 | 1008.3 |
| 20260904105305 | 68 | 21 | 0.0 | 0.0 | 0.00 | 0.50 | 0.50 | 99 | 1008.3 |
| 20260904104757 | 68 | 22 | 0.0 | 0.0 | 0.00 | 0.50 | 0.50 | 99 | 1008.3 |
| 20260904104253 | 68 | 19 | 0.0 | 0.0 | 0.00 | 0.50 | 0.50 | 99 | 1008.2 |
| 20260904103750 | 68 | 349 | 0.0 | 0.0 | 0.00 | 0.50 | 0.50 | 99 | 1008.3 |
| 20260904103249 | 68 | 340 | 0.0 | 0.0 | 0.00 | 0.50 | 0.50 | 99 | 1008.1 |
| 20260904102745 | 68 | 333 | 0.0 | 0.0 | 0.00 | 0.50 | 0.50 | 99 | 1008.1 |
| 20260904102241 | 68 | 307 | 0.0 | 0.0 | 0.00 | 0.50 | 0.50 | 99 | 1007.9 |
| 20260904101737 | 68 | 55 | 0.0 | 0.0 | 0.00 | 0.50 | 0.50 | 99 | 1008.0 |
| 20260904101233 | 68 | 69 | 0.0 | 0.0 | 0.00 | 0.50 | 0.50 | 99 | 1007.7 |
| 20260904100728 | 68 | 47 | 0.0 | 0.0 | 0.00 | 0.50 | 0.50 | 99 | 1007.9 |
| 20260904100224 | 68 | 41 | 1.0 | 1.0 | 0.00 | 0.50 | 0.50 | 99 | 1007.6 |
| 20260904095723 | 68 | 4 | 0.0 | 0.0 | 0.00 | 0.50 | 0.50 | 99 | 1007.5 |
| 20260904095218 | 68 | 72 | 0.0 | 0.0 | 0.00 | 0.50 | 0.50 | 99 | 1007.7 |
| 20260904094714 | 68 | 59 | 0.0 | 0.0 | 0.00 | 0.50 | 0.50 | 99 | 1007.6 |
| 20260904094214 | 68 | 44 | 0.0 | 0.0 | 0.00 | 0.50 | 0.50 | 99 | 1007.3 |
| 20260904093711 | 68 | 42 | 0.0 | 0.0 | 0.00 | 0.50 | 0.50 | 99 | 1007.4 |
| 20260904093210 | 68 | 38 | 0.0 | 0.0 | 0.00 | 0.50 | 0.50 | 99 | 1007.5 |
| 20260904092706 | 68 | 49 | 0.0 | 0.0 | 0.00 | 0.50 | 0.50 | 99 | 1007.5 |
| 20260904092202 | 68 | 50 | 0.0 | 0.0 | 0.00 | 0.50 | 0.50 | 99 | 1007.3 |
| 20260904091658 | 68 | 42 | 0.0 | 0.0 | 0.00 | 0.50 | 0.50 | 99 | 1007.3 |
| 20260904091158 | 68 | 55 | 0.0 | 0.0 | 0.00 | 0.50 | 0.50 | 99 | 1007.7 |
| 20260904090653 | 68 | 50 | 0.0 | 0.0 | 0.00 | 0.50 | 0.50 | 99 | 1007.5 |
| 20260904090149 | 68 | 72 | 0.0 | 0.0 | 0.00 | 0.50 | 0.50 | 99 | 1007.2 |
| 20260904085644 | 69 | 73 | 0.0 | 0.0 | 0.00 | 0.50 | 0.50 | 99 | 1007.3 |
| 20260904085138 | 69 | 73 | 0.0 | 0.0 | 0.00 | 0.50 | 0.50 | 99 | 1007.2 |
| 20260904084633 | 69 | 68 | 0.0 | 0.0 | 0.00 | 0.50 | 0.50 | 99 | 1007.2 |
| 20260904084130 | 69 | 353 | 0.0 | 0.0 | 0.00 | 0.50 | 0.50 | 99 | 1007.1 |
| 20260904083626 | 69 | 174 | 0.0 | 1.0 | 0.00 | 0.50 | 0.50 | 99 | 1007.1 |
| 20260904083121 | 69 | 339 | 0.0 | 0.0 | 0.00 | 0.50 | 0.50 | 99 | 1007.0 |
| 20260904082616 | 69 | 122 | 0.0 | 0.0 | 0.00 | 0.50 | 0.50 | 99 | 1007.0 |
| 20260904082112 | 69 | 62 | 0.0 | 0.0 | 0.00 | 0.50 | 0.50 | 99 | 1006.9 |
| 20260904081607 | 69 | 62 | 0.0 | 0.0 | 0.00 | 0.50 | 0.50 | 99 | 1006.9 |
| 20260904081102 | 69 | 50 | 0.0 | 0.0 | 0.00 | 0.50 | 0.50 | 99 | 1006.9 |
| 20260904080557 | 69 | 93 | 0.0 | 0.0 | 0.00 | 0.50 | 0.50 | 99 | 1006.7 |
| 20260904080054 | 69 | 76 | 0.0 | 0.0 | 0.07 | 0.50 | 0.50 | 99 | 1006.6 |
| 20260904075549 | 69 | 65 | 0.0 | 0.0 | 0.07 | 0.50 | 0.50 | 99 | 1006.5 |
| 20260904075044 | 69 | 73 | 0.0 | 0.0 | 0.05 | 0.49 | 0.49 | 99 | 1006.6 |
| 20260904074543 | 69 | 69 | 0.0 | 0.0 | 0.12 | 0.49 | 0.49 | 99 | 1006.7 |
| 20260904074038 | 69 | 40 | 1.0 | 1.0 | 0.24 | 0.49 | 0.49 | 99 | 1007.2 |
| 20260904073533 | 70 | 313 | 0.0 | 1.0 | 0.19 | 0.47 | 0.47 | 99 | 1007.6 |
| 20260904073029 | 70 | 0 | 2.0 | 3.0 | 0.19 | 0.45 | 0.45 | 99 | 1007.4 |
| 20260904072525 | 72 | 82 | 1.0 | 2.0 | 0.24 | 0.44 | 0.44 | 99 | 1007.8 |
| 20260904072020 | 72 | 42 | 1.0 | 2.0 | 0.40 | 0.42 | 0.42 | 99 | 1007.9 |
| 20260904071515 | 72 | 20 | 1.0 | 1.0 | 1.02 | 0.40 | 0.40 | 99 | 1007.9 |
| 20260904071010 | 72 | 47 | 0.0 | 1.0 | 1.02 | 0.36 | 0.36 | 99 | 1007.7 |
| 20260904070509 | 72 | 12 | 1.0 | 1.0 | 0.35 | 0.23 | 0.23 | 99 | 1007.7 |
| 20260904070004 | 72 | 249 | 1.0 | 1.0 | 0.12 | 0.19 | 0.19 | 99 | 1007.5 |
| 20260904065459 | 72 | 61 | 0.0 | 0.0 | 0.00 | 0.17 | 0.17 | 99 | 1007.3 |
| 20260904064955 | 72 | 61 | 0.0 | 0.0 | 0.00 | 0.17 | 0.17 | 99 | 1007.3 |
| 20260904064451 | 72 | 61 | 0.0 | 0.0 | 0.00 | 0.17 | 0.17 | 99 | 1007.4 |
| 20260904063945 | 72 | 259 | 0.0 | 1.0 | 0.00 | 0.17 | 0.17 | 99 | 1007.6 |
| 20260904063442 | 0 | 0.0 | 0.0 | 0.00 | 0.00 | 0.00 | 1007.6 | ||
| 20260904062937 | 0 | 0.0 | 0.0 | 0.00 | 0.00 | 0.00 | 1007.4 | ||
| 20260904062433 | 0 | 0.0 | 0.0 | 0.00 | 0.00 | 0.00 | 1007.5 | ||
| 20260904061928 | 0 | 0.0 | 0.0 | 0.00 | 0.00 | 0.00 | 1007.4 | ||
| 20260904061425 | 0 | 0.0 | 0.0 | 0.00 | 0.00 | 0.00 | 1007.5 | ||
| 20260904060920 | 0 | 0.0 | 0.0 | 0.00 | 0.00 | 0.00 | 1007.7 | ||
| 20260904060416 | 72 | 59 | 0.0 | 0.0 | 0.00 | 0.17 | 0.17 | 99 | 1007.8 |
| 20260904055912 | 72 | 59 | 0.0 | 0.0 | 0.00 | 0.17 | 0.17 | 99 | 1007.8 |
| 20260904055407 | 72 | 59 | 0.0 | 0.0 | 0.07 | 0.17 | 0.17 | 99 | 1007.7 |
| 20260904054903 | 72 | 76 | 0.0 | 0.0 | 0.07 | 0.17 | 0.17 | 99 | 1008.0 |
| 20260904054358 | 72 | 146 | 0.0 | 1.0 | 0.24 | 0.16 | 0.16 | 99 | 1008.1 |
| 20260904053853 | 72 | 73 | 0.0 | 0.0 | 0.54 | 0.16 | 0.16 | 99 | 1008.1 |
| 20260904053352 | 72 | 97 | 0.0 | 0.0 | 0.59 | 0.12 | 0.12 | 99 | 1008.6 |
| 20260904052849 | 72 | 48 | 0.0 | 0.0 | 0.28 | 0.07 | 0.07 | 99 | 1008.3 |
| 20260904052345 | 72 | 297 | 1.0 | 1.0 | 0.00 | 0.02 | 0.02 | 99 | 1008.7 |
| 20260904051841 | 72 | 259 | 1.0 | 1.0 | 0.07 | 0.02 | 0.02 | 99 | 1008.6 |
| 20260904051337 | 72 | 54 | 0.0 | 0.0 | 0.07 | 0.02 | 0.02 | 99 | 1008.5 |